STARLINK-32890, 62896

Orbit data source: Space-Track

STARLINK-32890, 62896 is a payload satellite owned by SpaceX/Seattle (US) in LEO that was launched on Tue, 04 Feb 2025 UTC via an FALCON 9 launch vehicle from the Air Force Eastern Test Range (AFETR). Payload-class satellites include a variety of spacecraft equipped with specific instruments for various scientific and technological missions. These include communications satellites like Starlink; space stations such as the ISS; scientific satellites like the Hubble; Earth observation satellites from companies like Planet Labs, Umbra, and HawkEye 360; GPS; miniature CubeSats for education and research; and military/defense satellites.

Loading next visibility...
Identifier
62896, 2025-024T
Orbit
LEO
Country
Flag of USUS
Related business
Manufacturer
SpaceX/Seattle
Mission
Operational Commercial Communications
Bus & Motor
STARLINK V2M, Unknown motor
Mass
730 kg wet, ~700 kg dry
Launch date (UTC)
2025-02-04 (8 months ago)
Launch vehicle
FALCON 9
Launch site
Air Force Eastern Test Range (AFETR)
Object type
Payload
Rocket body
Debris
Shape & HBR
Box + 2 Pan, 17.7 m
Radar Cross Section
33.884 m², Large (>1 m²)

Expand to show TLE details & history
Last TLE update: 11 hours ago

TLE from 11 hours ago
0 STARLINK-32890
1 62896U 25024T   25290.76753995  .00067938  00000-0  24499-2 0  9996
2 62896  43.0014  52.0135 0002674 259.5221 100.5329 15.27656130 40411
Epoch: 2025-10-17T18:25Z
TLE epoch observation values (Epoch: 2025-10-17T18:25:15.451Z)
Latitude
-0.00006°
Longitude
109.19088°
Altitude
482.933 km
Speed
7.626 km/s
True Right ascension
03h 28m 03s
True Declination
0° 00' 00"
Sunlit
Object was in full shadow at epoch
Visualization orbit readout
Latitude
Unknown
Longitude
Unknown
Altitude
Unknown
Speed
Unknown
Apparent Right ascension
Unknown
Apparent Declination
Unknown
Sunlit
N/A
Visualization observer readout
Local Sidereal Time
00:18:21
Azimuth
Unknown
Elevation
Unknown
Doppler factor
Unknown
Orbital elements
Apogee altitude
486.601 km
Perigee altitude
482.931 km
Semi-major axis
6,862.903 km
Eccentricity
0.00027
Inclination
43.0014°
RAAN
52.0135°
Arg. of periapsis
259.5221°
True anomaly
100.56302°
Mean anomaly
100.5329°
Eccentric anomaly
100.54796°
Mean motion
3.81752 °/min
Orbital period
94.3 mins
BSTAR
0.0024499
Loading maneuver chart data...
Computing Atmospheric mass density...
Loading historical data...
Loading historical data...
Loading historical data...
Loading historical data...
Loading historical data...
Loading historical data...
Loading historical data...

Documentation

Showing up to 5 results
|